Location: Puketoi
(40.5833°S, 176.0167°E)
Time: 12:07:58
(UTC+00:00)

ISS - Pass Details

Date: 08 February 2023
Orbit: 414 x 424 km, 51.6° (Epoch: 31 March)

Event Time Altitude Azimuth Distance (km) Brightness Sun altitude
Exits shadow 14:21:00 13° 186° (S) 1,317 -0.7 -28.8°
Maximum altitude 14:21:50 14° 170° (S) 1,271 -0.6 -28.7°
Drops below altitude 10° 14:23:47 10° 135° (SE) 1,513 0.0 -28.5°
Sets 14:26:39 0° 108° (ESE) 2,378 0.8 -28.2°
